User: anonymous   Login
Location: Campillo
(40.8621°N, 4.2488°W)
Time: 03:04:23
(UTC+00:00)
Language:

COSMOS 2406 - Orbit

View from above orbital plane
View from above orbital plane
View from above satellite
View from above satellite

Ground track
Ground track

The orbit data is extracted from the following two-line orbital elements,

1 28352U 04021A   21207.48850843 -.00000298  00000-0 -13766-3 0  9996
2 28352  71.0033 231.8244 0013900 344.7617  15.3083 14.11707313882573
Epoch (UTC): 26 July 2021 11:43:27
Eccentricity: 0.0013900
inclination: 71.0033°
perigee height: 843 km
apogee height: 863 km
right ascension of ascending node: 231.8244°
argument of perigee: 344.7617°
revolutions per day: 14.11707313
mean anomaly at epoch: 15.3083°
orbit number at epoch: 88257

The dashed part of the orbit path shows where the satellite is in the earth's shadow,  

DLR